Weather in Limone sul Garda

Italy     45°48′52″N   10°47′29″E
temp.,
°C
wind,
m/s
gust,
m/s
humid.,
%
clouds,
%
prec.,
mm/h
press.,
hPa
HPBL,
m
15 may, sat
sat1523:00+9nne3384100 0.2 1010109
02:00+9nne4686100 0.4 1011201
05:00+8nne348586 0.0 1011165
08:00+10nne237976 0.0 1011247
11:00+11ssw3272100 0.2 1011736
14:00+12ssw3476100 0.5 1010618
17:00+12s2375100 0.2 1008401
20:00+11ssw3485100 0.8 1008263
16 may, sun
sun1623:00+10e118896 1.3 100898
02:00+10wnw018622 1.5 1008156
05:00+10ne228663 0.0 1008103
08:00+11ne238159 0.0 1009271
11:00+12ssw3278100 0.1 1009634
14:00+13ssw347187 0.3 1008723
17:00+12ssw3386100 0.2 1007395
20:00+12s118898 0.3 1006145
17 may, mon
mon1723:00+11sse2397100 3.3 1006236
02:00+11s379993 7.6 1004506
05:00+11ne239556 1.4 1004277
08:00+10nne578458 1.4 1005361
11:00+11nne687757 0.1 1007464
14:00+16n01605 0.6 1006658
17:00+13ssw3478100 3.1 1007256
20:00+12ssw348473 6.4 1009154
18 may, tue
tue1823:00+9w239432 1.9 1012170
02:00+8nne458813 2.9 1013143
05:00+7nne568569 0.5 1014143
08:00+8nne568396 1.9 1014226
11:00+12nne446495 0.7 1012509
14:00+12ssw227799 2.6 1012386
17:00+9n6985100 4.8 1014679
20:00+9nne5783100 6.9 1014208
19 may, wed
wed1923:00+8n33800 0.0 101892
02:00+6nne34770 0.0 102086
05:00+5nne45750 0.0 1020112
08:00+8nne56680 0.0 1021191
11:00+13sse114455 0.0 1019713
14:00+12ssw335945 0.1 1019683
17:00+12nw1160100 0.8 1018325
20:00+10nne358034 1.8 1019148